Change the Weather History Date:

Friday, July 13, 2012

  Actual Average Record
Temperature  
Mean Temperature 80 °F 74 °F  
Max Temperature 100 °F 89 °F 109 °F (1974)
Min Temperature 59 °F 60 °F 42 °F (1950)
Degree Days  
Heating Degree Days 0 0  
Month to date heating degree days 0 3  
Since 1 June heating degree days 11 66  
Since 1 July heating degree days 0 3  
Cooling Degree Days 15 10  
Month to date cooling degree days 184 111  
Year to date cooling degree days 487 261  
Since 1 June cooling degree days 430 234  
Growing Degree Days 30 (Base 50)    
Moisture  
Dew Point 52 °F    
Average Humidity 50    
Maximum Humidity 84    
Minimum Humidity 16    
Precipitation  
Precipitation 0.00 in 0.08 in 0.72 in (1952)
Month to date precipitation 0.11 1.03  
Year to date precipitation 5.24 10.88  
Sea Level Pressure  
Sea Level Pressure 29.93 in    
Wind  
Wind Speed 4 mph (ESE)    
Max Wind Speed 14 mph    
Max Gust Speed 18 mph    
Visibility 10 miles    
Events      
T = Trace of Precipitation, MM = Missing Value Source: NWS Daily Summary

Daily Weather History Graph

Daily Weather History Graph

Search for Another Location

Airport or City:

Trip Planner

Search our weather history database for the weather conditions in past years. The results will help you decide how hot, cold, wet, or windy it might be!

Date:

Astronomy

Jul. 13, 2012 Rise Set
Actual Time 5:16 AM MDT 8:27 PM MDT
Civil Twilight 4:40 AM MDT 9:03 PM MDT
Nautical Twilight 3:55 AM MDT 9:48 PM MDT
Astronomical Twilight 2:59 AM MDT 10:43 PM MDT
Moon 12:57 AM MDT (7/13) 3:57 PM MDT (7/13)
Length of Visible Light 16h 22m
Length of Day
15h 11m
Waning Crescent, 26% of the Moon is Illuminated
Jul 13
Waning Crescent
Jul 18
New
Jul 26
First Quarter
Aug 1
Full
Aug 9
Last Quarter

Hourly Weather History & Observations

Time (MDT) Temp. Heat Index Dew Point Humidity Pressure Visibility Wind Dir Wind Speed Gust Speed Precip Events Conditions
12:55 AM 70.0 °F - 57.9 °F 65% 29.94 in 10.0 mi Calm Calm - N/A   Clear
1:55 AM 69.1 °F - 57.9 °F 68% 29.94 in 10.0 mi Calm Calm - N/A   Clear
2:55 AM 64.9 °F - 57.0 °F 75% 29.94 in 10.0 mi Calm Calm - N/A   Clear
3:55 AM 62.1 °F - 55.9 °F 80% 29.94 in 10.0 mi Calm Calm - N/A   Clear
4:55 AM 60.1 °F - 55.9 °F 86% 29.95 in 10.0 mi WNW 3.5 mph - N/A   Clear
5:55 AM 60.1 °F - 55.9 °F 86% 29.96 in 10.0 mi Calm Calm - N/A   Clear
6:55 AM 64.9 °F - 57.0 °F 75% 29.96 in 10.0 mi Calm Calm - N/A   Clear
7:55 AM 73.9 °F - 60.1 °F 62% 29.96 in 10.0 mi West 3.5 mph - N/A   Clear
8:55 AM 82.9 °F 83.2 °F 60.1 °F 46% 29.96 in 10.0 mi WSW 4.6 mph - N/A   Clear
9:55 AM 90.0 °F 88.6 °F 57.0 °F 33% 29.96 in 10.0 mi Calm Calm - N/A   Clear
10:55 AM 93.9 °F - 46.9 °F 20% 29.95 in 10.0 mi Calm Calm - N/A   Clear
11:55 AM 95.0 °F - 46.0 °F 19% 29.95 in 10.0 mi Calm Calm - N/A   Clear
12:55 PM 98.1 °F - 46.0 °F 17% 29.94 in 10.0 mi Variable 3.5 mph - N/A   Clear
1:55 PM 99.0 °F - 48.0 °F 18% 29.92 in 10.0 mi East 8.1 mph - N/A   Clear
2:55 PM 98.1 °F - 46.9 °F 18% 29.91 in 10.0 mi SSE 9.2 mph - N/A   Clear
3:55 PM 99.0 °F - 44.1 °F 15% 29.90 in 10.0 mi Calm Calm - N/A   Clear
4:55 PM 97.0 °F - 43.0 °F 16% 29.89 in 10.0 mi SE 4.6 mph - N/A   Clear
5:55 PM 96.1 °F - 48.0 °F 19% 29.90 in 10.0 mi Variable 3.5 mph - N/A   Clear
6:55 PM 96.1 °F - 51.1 °F 22% 29.88 in 10.0 mi ESE 6.9 mph - N/A   Clear
7:55 PM 91.9 °F - 50.0 °F 24% 29.88 in 10.0 mi ESE 6.9 mph - N/A   Clear
8:55 PM 81.0 °F - 50.0 °F 34% 29.90 in 10.0 mi East 6.9 mph - N/A   Clear
9:55 PM 80.1 °F - 50.0 °F 35% 29.92 in 10.0 mi ESE 5.8 mph - N/A   Clear
10:55 PM 77.0 °F - 50.0 °F 39% 29.93 in 10.0 mi ENE 10.4 mph - N/A   Clear
11:55 PM 73.9 °F - 51.1 °F 45% 29.94 in 10.0 mi ENE 4.6 mph - N/A   Clear